STARLINK-31523, 59220

Orbit data source: Space-Track

STARLINK-31523, 59220 is a payload satellite owned by SpaceX/Seattle (US) in LEO that was launched on Mon, 11 Mar 2024 UTC via an FALCON 9 launch vehicle from the Air Force Western Test Range (AFWTR). Payload-class satellites include a variety of spacecraft equipped with specific instruments for various scientific and technological missions. These include communications satellites like Starlink; space stations such as the ISS; scientific satellites like the Hubble; Earth observation satellites from companies like Planet Labs, Umbra, and HawkEye 360; GPS; miniature CubeSats for education and research; and military/defense satellites.

Loading next visibility...
Identifier
59220, 2024-046V
Orbit
LEO
Country
Flag of USUS
Related business
Manufacturer
SpaceX/Seattle
Mission
Operational Commercial Communications
Bus & Motor
STARLINK V2M, Unknown motor
Mass
730 kg wet, ~700 kg dry
Launch date (UTC)
2024-03-11 (2 years ago)
Launch vehicle
FALCON 9
Launch site
Air Force Western Test Range (AFWTR)
Object type
Payload
Rocket body
Debris
Shape & HBR
Box + 2 Pan, 17.7 m
Radar Cross Section
33.884 m², Large (>1 m²)

Expand to show TLE details & history
Last TLE update: 2 days ago

TLE from 2 days ago
0 STARLINK-31523
1 59220U 24046V   26171.04377546  .00001588  00000-0  58087-4 0  9991
2 59220  53.1609  38.2696 0001233  91.7482 268.3662 15.34413122128738
Epoch: 2026-06-20T01:03Z
TLE epoch observation values (Epoch: 2026-06-20T01:03:02.199Z)
Latitude
-0.00002°
Longitude
114.24636°
Altitude
463.59 km
Speed
7.636 km/s
True Right ascension
02h 33m 04s
True Declination
0° 00' 00"
Sunlit
Object was in daylight at epoch
Visualization orbit readout
Latitude
Unknown
Longitude
Unknown
Altitude
Unknown
Speed
Unknown
Apparent Right ascension
Unknown
Apparent Declination
Unknown
Sunlit
N/A
Visualization observer readout
Local Sidereal Time
21:30:13
Azimuth
Unknown
Elevation
Unknown
Doppler factor
Unknown
Orbital elements
Apogee altitude
463.764 km
Perigee altitude
462.077 km
Semi-major axis
6,841.058 km
Eccentricity
0.00012
Inclination
53.1609°
RAAN
38.2696°
Arg. of periapsis
91.7482°
True anomaly
268.35208°
Mean anomaly
268.3662°
Eccentric anomaly
268.35914°
Mean motion
3.83582 °/min
Orbital period
93.85 mins
BSTAR
0.000058087
Loading maneuver chart data...
Computing Atmospheric mass density...
Loading historical data...
Loading historical data...
Loading historical data...
Loading historical data...
Loading historical data...
Loading historical data...
Loading historical data...

Documentation

Showing up to 5 results
|